Wind_Speed
5 5 5 4 4 5 6 7 8 9 10 10 11 12 13 14 15 16 17 18 19 20 20 21 21 21 20 19 18 17 15 15 16 15 14 13 12 10 8 7 6 7 9 9 10 9 9 8 8 7 6 5 4 3 3 3 4 4 5 5 5 6 5 4 4 1 3 4 3 5 8 8 7 7 6 5 4 3 2 2 2 2 3 4 4 4 5 6
3 3 3 3 2 3 4 5 6 8 9 10 11 12 13 14 15 16 17 18 19 19 20 20 20 20 19 18 17 16 14 14 15 15 15 14 13 11 8 6 6 7 8 9 10 9 9 8 8 7 6 6 5 3 3 3 4 4 5 5 6 7 5 4 3 2 2 0 1 4 6 7 7 7 5 4 4 4 3 3 3 3 3 4 5 4 4 5
3 2 2 1 1 1 2 3 4 6 7 9 10 11 12 13 14 16 17 18 18 19 20 20 20 19 18 17 16 15 13 13 14 13 14 14 14 12 9 7 6 6 7 8 9 9 8 8 8 7 7 7 5 4 4 4 4 4 5 5 7 8 7 5 2 1 2 3 3 4 6 7 8 7 4 3 4 4 3 4 4 4 4 4 5 4 3 4
3 3 2 2 2 1 1 2 3 4 6 7 9 10 11 12 14 15 16 17 18 19 19 19 19 19 18 17 15 14 13 12 12 12 13 14 14 13 11 8 6 5 6 8 9 9 8 8 7 7 8 8 6 4 4 4 5 5 5 6 7 9 9 7 4 0 3 5 5 6 7 8 9 7 5 4 4 4 4 4 5 5 5 4 5 5 3 4
4 4 4 4 4 3 2 2 3 4 5 6 8 9 10 12 13 15 16 17 18 18 19 19 19 18 17 16 14 13 12 11 10 10 11 12 13 13 12 10 6 4 5 6 8 8 8 8 7 8 9 8 5 4 4 4 5 5 6 7 7 8 9 9 7 3 3 6 7 8 8 9 10 8 6 5 5 4 4 4 5 6 6 5 5 5 4 4
5 5 5 5 5 4 4 4 4 4 4 6 7 8 10 11 13 14 15 16 17 18 19 19 18 18 17 15 14 12 11 10 9 9 9 10 11 12 11 11 8 5 4 5 7 7 8 7 7 8 9 8 5 4 4 5 6 6 6 7 6 6 8 9 8 6 4 5 7 9 9 10 10 9 8 7 6 6 6 6 6 6 6 5 4 6 6 5
6 6 6 6 6 6 6 6 6 5 5 6 7 8 9 11 12 13 14 16 17 18 18 18 18 18 17 15 14 11 10 9 8 9 9 8 9 10 10 10 10 7 4 4 5 6 6 6 7 7 8 7 5 5 5 6 7 6 6 6 5 5 7 8 8 7 5 5 7 9 10 11 11 11 10 9 8 7 7 8 7 7 7 6 5 6 7 6
6 6 6 6 7 7 7 7 7 7 6 6 7 8 9 10 11 12 14 15 16 17 18 18 18 18 17 15 14 11 9 7 6 7 8 8 8 8 8 9 9 8 5 3 4 5 5 6 6 6 7 7 6 6 7 7 8 8 7 7 6 5 6 7 7 7 6 5 6 8 10 11 11 11 11 10 9 7 6 7 8 8 8 7 7 8 8 6
7 7 7 8 8 8 8 8 8 8 8 8 8 8 9 10 11 12 13 14 15 16 17 18 18 18 17 16 14 12 9 7 5 5 7 8 8 7 7 7 8 8 6 3 3 4 5 6 6 6 6 6 6 7 8 9 9 9 8 7 7 6 6 7 7 7 7 6 6 7 10 11 11 11 11 11 9 7 7 7 8 8 8 8 9 9 8 6
8 8 8 8 9 9 9 9 9 9 9 9 9 9 9 10 11 12 12 13 14 15 16 17 17 17 17 16 14 12 10 8 6 5 6 7 8 8 7 7 7 7 6 4 3 3 4 6 6 6 6 6 7 8 9 10 9 9 9 8 8 7 7 9 9 8 8 7 6 6 9 10 11 11 10 10 10 8 8 9 9 9 9 9 10 9 7 7
9 9 9 9 9 10 10 10 10 10 10 10 10 9 9 10 11 11 12 13 14 14 15 16 17 17 16 16 14 13 11 9 6 6 7 7 8 8 8 8 7 6 6 4 2 3 4 5 6 6 6 6 8 9 10 10 9 9 9 8 9 9 10 11 10 9 8 7 6 6 9 11 11 11 10 10 9 9 9 9 10 10 10 11 11 9 8 9
10 10 10 10 10 10 10 10 11 11 11 11 10 10 10 10 10 11 12 13 13 14 14 15 16 16 16 15 14 13 12 9 7 7 8 8 8 9 8 8 8 7 5 4 3 4 4 4 5 6 6 7 8 9 9 9 9 9 9 9 10 11 13 13 11 10 8 7 6 6 10 11 10 9 9 9 9 9 11 11 11 11 11 11 12 11 9 10
10 10 10 10 10 11 11 11 11 11 11 11 11 10 10 10 11 11 12 12 13 13 14 15 15 16 15 15 14 13 11 9 8 7 7 7 8 8 8 7 8 7 6 5 4 4 4 4 5 5 6 8 9 8 8 9 8 8 8 9 9 10 13 14 13 11 9 8 7 7 9 9 7 8 9 10 9 9 12 13 13 13 12 13 14 14 12 11
10 10 10 11 11 11 11 12 12 12 12 12 12 11 11 11 11 11 12 12 13 13 13 14 14 15 15 14 14 12 9 8 7 7 6 6 6 6 6 7 7 7 8 8 7 6 5 5 5 5 6 8 8 8 8 8 7 7 8 8 9 10 12 14 14 12 10 10 9 8 10 9 6 8 9 9 9 9 11 13 15 15 14 15 16 16 14 12
10 10 11 11 11 11 12 12 12 12 12 12 12 12 11 11 11 11 12 12 12 12 12 13 13 14 14 14 14 12 9 8 7 7 7 6 6 6 6 7 7 7 8 9 9 8 8 7 7 6 6 7 8 9 9 9 9 9 9 9 11 12 13 14 14 13 12 13 12 9 10 9 9 10 10 10 10 10 12 14 16 16 16 17 17 17 16 13
10 11 11 12 12 12 12 12 12 12 13 13 13 12 12 12 12 12 12 12 12 12 12 12 12 13 13 14 13 12 10 9 8 8 7 7 7 7 6 7 7 7 8 9 10 11 11 9 8 7 7 8 7 8 9 10 11 11 11 12 13 12 12 12 13 13 13 14 14 11 10 11 11 12 12 12 12 13 14 17 19 18 19 19 18 18 17 15
11 11 12 12 12 12 12 12 13 13 13 13 13 13 12 12 12 12 12 12 12 12 12 12 12 12 13 13 13 11 10 10 9 8 8 8 8 8 7 7 8 8 8 9 10 12 13 12 10 9 9 8 7 7 8 9 11 12 12 13 13 13 13 12 12 13 14 14 14 12 11 12 12 13 13 14 14 16 16 19 21 19 21 20 18 17 18 17
12 12 12 13 13 13 13 13 13 13 13 13 13 13 13 12 12 13 13 12 12 12 12 11 12 12 12 13 13 11 10 10 9 9 8 8 8 8 8 8 8 8 9 9 10 12 14 13 12 11 10 9 7 7 9 11 13 14 14 13 12 12 12 11 12 13 13 12 13 12 11 12 13 14 14 14 15 16 17 19 20 20 21 21 19 18 19 19
13 13 13 13 13 13 13 13 13 14 13 13 13 13 13 13 13 13 13 12 12 12 12 11 11 12 12 13 13 12 11 10 11 10 9 9 9 9 9 9 9 9 9 9 10 11 13 14 14 13 12 12 11 9 12 14 14 14 13 11 11 11 11 11 12 13 11 11 11 11 11 12 13 14 14 15 15 17 19 20 20 21 22 23 21 21 22 21
15 14 14 14 14 14 13 13 14 14 13 13 13 13 13 13 13 13 12 12 12 12 12 12 12 12 12 12 13 12 11 12 12 11 11 10 10 10 11 11 10 10 10 10 10 11 12 14 16 16 16 15 13 12 13 13 13 13 13 12 11 11 11 11 12 12 11 10 10 11 12 12 13 14 14 16 17 19 21 22 23 23 24 24 23 22 24 22
16 16 15 15 15 14 13 13 14 14 13 13 13 13 12 12 13 12 13 13 12 12 12 12 12 12 12 12 13 13 13 14 13 12 12 11 11 12 12 12 11 11 11 11 11 11 12 15 17 18 17 16 15 13 13 13 14 15 14 14 12 11 11 12 13 12 12 11 10 11 12 13 13 14 15 17 19 21 23 24 26 24 21 21 22 23 24 21
17 17 17 16 15 15 14 13 14 14 13 12 12 12 12 12 12 12 13 13 13 13 13 12 12 12 12 12 12 13 15 14 13 12 12 12 12 12 12 13 13 12 11 11 12 11 12 16 17 16 17 17 16 15 14 15 16 17 17 15 14 13 12 14 15 14 14 13 11 11 13 14 15 15 17 18 21 23 24 26 26 23 20 19 22 24 23 20
18 17 18 17 16 15 14 12 13 14 13 12 12 12 12 12 12 12 13 13 13 13 13 13 13 12 12 12 13 15 15 14 14 13 13 13 13 13 13 13 13 13 12 12 12 12 13 16 15 14 16 16 17 16 15 15 17 18 18 16 15 13 13 15 16 15 15 15 14 13 13 15 15 16 18 19 22 24 24 26 23 20 18 20 25 25 22 21
19 18 18 17 16 15 14 13 13 13 12 12 12 12 12 11 12 12 13 13 13 13 13 14 13 13 13 13 14 15 15 14 14 14 13 14 14 13 14 13 13 13 12 12 12 12 14 14 13 14 15 15 15 16 15 15 16 17 17 16 15 13 13 15 16 15 15 15 15 14 13 15 15 17 18 19 22 23 22 23 15 13 19 27 29 24 22 21
18 19 18 17 17 15 14 13 13 13 12 11 12 11 11 11 11 12 13 13 13 13 13 14 14 13 13 14 15 16 15 15 14 14 14 14 13 13 13 13 13 13 12 11 11 12 13 13 13 13 13 13 14 15 14 14 14 15 16 16 16 15 15 16 16 15 14 13 14 14 13 16 16 16 18 18 19 20 20 18 6 18 26 31 29 24 22 20
18 18 18 17 17 15 14 14 13 14 13 12 12 11 11 11 11 12 13 13 14 14 14 14 14 13 13 15 16 16 15 15 14 14 13 13 13 13 12 12 13 12 11 10 10 11 12 12 12 12 12 11 12 12 13 13 10 11 16 16 16 18 16 15 13 12 12 12 13 14 13 16 16 15 15 16 16 16 15 10 8 23 28 30 27 23 22 19
18 17 17 17 17 16 15 14 14 14 13 13 13 12 12 12 12 13 13 14 15 15 15 14 13 13 15 16 16 16 16 15 15 14 13 13 13 12 12 12 12 11 10 8 7 10 10 10 10 10 9 8 9 10 12 11 8 10 16 16 16 18 15 12 11 11 12 12 13 15 13 13 15 14 13 14 13 12 10 5 8 18 22 25 24 22 21 20
19 17 17 17 17 17 16 15 15 15 14 14 14 13 13 13 13 13 13 14 15 15 14 14 14 15 16 17 16 16 16 15 14 13 13 13 12 12 11 12 11 10 9 6 7 10 10 9 9 9 7 6 8 10 10 9 8 12 16 15 14 15 13 12 12 13 14 13 13 15 13 11 13 13 12 12 11 9 7 4 6 11 16 20 21 20 19 18
19 20 18 18 18 18 18 17 17 17 16 16 15 14 14 14 14 14 13 14 15 14 14 14 15 15 16 17 16 16 15 14 14 13 13 12 11 11 11 11 10 8 7 7 8 10 9 9 9 9 8 8 9 9 8 8 9 12 14 13 13 12 12 13 13 13 14 12 13 14 13 11 11 11 11 10 9 8 7 4 5 9 13 15 17 17 16 16
19 21 20 19 19 19 19 19 18 18 18 17 17 16 15 15 15 14 14 14 14 14 14 15 15 15 16 17 17 16 15 14 13 13 12 11 11 11 11 11 9 6 5 5 7 8 7 8 9 9 9 9 9 9 9 9 9 11 11 10 11 11 12 13 12 12 11 11 12 12 12 11 10 10 11 10 8 8 8 6 6 9 12 12 13 15 16 16
20 20 22 21 20 20 21 20 20 20 20 19 18 17 17 16 15 15 14 14 15 15 14 14 14 15 17 17 17 16 15 14 13 12 12 11 11 12 12 11 9 6 5 5 5 6 6 8 8 8 8 9 8 9 10 9 8 8 8 9 9 10 12 10 8 8 8 10 11 11 11 9 9 10 10 9 9 9 9 7 6 7 12 14 14 16 17 16
23 22 22 23 22 22 22 22 22 22 21 21 20 19 19 17 17 16 15 15 15 14 14 14 15 16 17 17 16 16 14 13 12 12 12 11 11 12 11 10 7 3 2 3 3 3 5 6 6 6 6 6 5 6 8 7 6 5 6 8 7 8 11 9 7 8 7 9 11 12 11 7 9 11 11 10 10 10 9 8 7 4 6 11 15 18 17 16
27 25 24 24 24 23 23 24 24 23 23 23 22 21 21 20 18 17 16 16 15 14 14 15 15 16 17 17 16 15 14 13 11 11 12 10 10 11 10 9 6 1 4 4 1 1 5 8 7 6 6 5 3 4 6 5 5 4 6 6 4 6 9 8 9 10 8 9 11 12 10 7 8 11 12 12 11 11 10 9 8 6 4 4 8 15 19 19
30 28 27 27 26 25 25 25 25 25 25 25 24 24 23 21 20 20 19 17 15 15 15 15 15 16 17 16 16 15 13 12 11 11 11 9 9 10 8 7 5 3 5 3 2 4 5 8 8 7 7 7 6 5 6 5 6 5 5 5 4 5 7 6 8 9 8 9 9 8 8 8 9 9 11 13 13 12 11 10 8 8 7 5 4 9 17 22
33 31 30 30 29 28 27 26 26 26 26 26 26 26 24 23 23 22 21 18 17 16 15 15 16 16 17 16 15 14 13 12 11 10 11 9 8 7 6 5 5 4 2 3 4 6 7 8 10 8 9 10 9 9 7 5 5 5 5 4 4 4 5 6 8 9 7 7 7 6 7 8 10 11 12 13 13 12 12 11 11 9 9 9 7 7 11 19
36 34 34 34 32 31 30 29 28 27 27 27 27 26 25 25 26 25 22 20 19 17 16 16 16 15 16 17 15 13 12 11 10 11 11 10 8 7 6 5 5 5 2 4 5 4 5 9 11 10 11 11 10 11 9 5 5 5 6 5 5 6 6 4 6 7 6 5 7 7 5 7 9 11 13 14 14 13 12 12 13 12 12 12 10 7 7 11
37 36 36 37 36 34 32 32 31 30 29 28 27 26 25 27 27 26 24 22 20 19 17 17 16 14 15 17 15 13 12 10 10 11 11 10 8 7 7 6 6 6 5 5 5 5 6 9 11 11 11 11 11 12 11 10 9 5 4 6 7 6 6 6 4 6 6 5 8 8 6 8 9 8 10 13 15 15 14 14 14 13 14 14 12 9 7 5
33 33 35 36 37 37 36 35 34 33 32 31 29 27 27 29 28 27 25 22 21 20 18 17 17 15 14 15 16 14 12 11 11 11 10 10 9 7 6 7 7 7 7 7 7 6 7 8 9 11 12 12 13 12 12 13 12 10 10 11 8 4 6 7 5 5 6 5 8 9 6 8 11 10 10 13 15 16 16 16 17 15 16 16 14 13 11 7
27 28 29 30 32 35 36 37 37 37 36 34 32 31 31 31 30 28 26 24 22 21 20 19 18 16 14 15 16 15 13 13 13 11 10 12 10 7 6 8 8 8 8 8 8 9 8 5 8 11 11 12 14 12 10 12 12 13 13 13 11 9 8 10 8 7 8 6 8 9 4 5 11 11 11 12 13 15 16 17 17 17 17 17 16 15 14 12
24 24 25 25 26 28 30 33 36 38 38 36 35 34 33 32 31 29 28 26 24 22 22 21 18 17 16 15 16 16 15 15 14 12 11 12 10 7 8 9 10 10 9 8 8 9 8 5 7 11 11 11 13 12 11 12 13 14 13 12 13 12 12 12 11 11 11 9 10 10 5 7 11 10 11 13 13 14 17 17 17 18 18 17 17 15 14 14
20 21 22 22 23 24 25 28 31 33 35 35 35 34 33 31 30 30 29 27 26 24 23 21 20 18 17 16 17 17 16 16 14 13 12 11 10 10 11 11 12 12 12 11 10 10 9 7 8 10 9 10 12 13 14 16 17 16 15 15 15 15 14 13 12 12 13 12 13 12 9 11 13 11 13 15 14 14 16 17 18 18 19 18 17 17 16 15
17 18 19 20 21 22 23 25 26 27 29 31 31 31 30 30 30 29 28 27 27 25 24 22 21 19 18 17 18 17 16 16 15 13 12 11 11 11 12 13 14 14 13 13 11 9 9 8 8 9 10 12 15 16 17 18 18 18 18 18 17 17 16 15 14 14 14 14 14 14 13 15 15 14 15 15 15 16 16 17 18 18 19 20 19 17 17 17
16 16 16 17 18 20 22 23 23 24 25 25 26 27 27 27 28 27 27 27 26 25 24 23 22 20 20 19 18 17 16 16 16 14 13 12 12 13 13 13 14 14 14 13 10 9 9 9 9 9 12 14 16 16 18 19 20 20 19 18 17 16 16 16 17 16 16 16 17 15 15 17 16 15 15 16 16 17 18 18 18 18 18 19 20 19 18 17
17 16 16 16 17 18 20 21 22 23 23 23 24 25 25 26 26 26 27 27 26 26 25 24 23 22 21 20 19 18 17 16 16 15 13 14 14 14 14 13 13 14 14 12 10 9 9 9 8 8 9 11 11 12 13 14 16 17 18 18 17 16 16 16 17 17 17 18 18 16 16 18 18 16 16 18 18 19 20 20 19 19 19 18 20 21 20 18
19 18 17 16 16 17 18 19 20 22 23 23 24 25 25 25 26 26 27 27 27 26 25 25 24 22 21 20 20 19 18 16 17 16 14 14 15 15 15 14 14 14 14 13 12 11 10 10 9 7 7 7 9 10 11 12 14 16 18 18 18 17 16 17 17 18 18 19 19 17 17 20 20 17 17 19 20 21 22 22 22 21 20 19 19 21 22 20
20 19 18 17 17 16 17 18 19 21 22 23 24 24 24 25 25 26 27 27 27 26 25 25 25 23 21 21 20 20 19 17 17 16 14 15 16 15 15 16 16 16 15 15 15 13 12 13 12 10 9 10 11 13 14 16 17 17 18 18 19 18 18 18 18 19 19 19 20 19 19 20 20 19 19 20 20 22 23 23 24 23 22 21 20 21 23 22
20 19 19 18 18 17 17 17 19 20 21 22 23 23 23 24 24 24 26 26 25 25 25 26 25 24 22 21 21 21 20 18 17 15 14 15 15 15 15 16 17 17 16 16 16 14 13 13 13 12 12 13 13 14 15 16 16 17 18 18 18 19 19 19 19 19 19 19 19 20 19 19 20 21 21 20 21 23 23 24 25 25 24 23 22 21 22 23
20 20 19 19 18 18 17 17 18 20 21 21 22 21 22 23 23 23 24 24 24 24 24 26 26 24 22 21 21 22 21 19 18 16 15 14 14 13 14 16 17 17 17 16 16 15 13 12 13 13 13 14 13 13 14 14 14 15 16 17 18 18 19 19 20 19 18 18 19 20 19 19 21 23 22 21 21 22 23 24 25 26 26 25 24 23 22 23
22 21 20 19 19 18 18 18 19 20 20 21 22 22 22 23 22 22 23 23 23 23 24 26 25 23 22 21 22 23 22 20 19 17 15 13 13 12 13 14 15 16 16 16 17 16 13 12 13 14 14 14 14 14 15 15 14 14 15 15 16 17 18 18 19 19 18 17 18 19 18 19 21 23 23 22 21 22 22 23 24 26 27 27 27 26 23 23
25 23 22 21 20 19 19 19 19 20 20 21 22 22 23 23 23 22 22 23 24 24 25 25 24 23 22 22 23 24 24 22 20 18 16 14 13 13 12 13 13 14 15 16 16 16 14 14 15 15 15 14 14 14 15 16 15 14 15 15 15 16 17 18 18 19 18 18 17 17 18 19 20 21 21 21 21 21 21 21 23 24 26 27 28 28 26 24
27 27 26 25 24 22 21 20 20 20 20 21 22 22 23 24 24 23 24 24 25 25 25 24 23 23 23 24 26 26 25 23 21 19 17 16 15 14 14 14 13 13 15 15 14 14 15 15 15 14 14 14 14 15 15 16 16 15 15 15 15 15 16 17 18 19 18 18 17 17 18 20 19 19 19 19 19 20 20 20 21 23 25 26 27 28 28 27
28 28 28 28 27 26 25 23 23 22 21 21 22 23 24 24 24 25 26 26 26 26 25 24 24 23 23 25 26 26 25 24 22 20 19 17 16 16 16 16 15 14 14 14 13 14 14 15 14 14 13 14 14 15 16 17 16 14 13 14 14 15 16 17 18 19 19 19 18 18 19 20 19 18 19 19 18 19 19 19 20 22 24 26 27 28 28 28
Wind_Direction
136 124 113 101 86 68 57 50 45 42 38 35 30 27 25 22 20 18 16 15 13 11 8 6 5 4 3 3 4 8 9 9 10 8 5 1 353 342 324 300 276 260 256 257 258 258 255 254 257 259 264 266 255 230 216 210 194 180 167 165 181 181 168 130 107 218 210 172 177 194 198 199 206 208 185 171 180 193 199 203 239 273 280 283 286 299 308 308
159 148 138 123 96 71 54 46 40 35 32 30 27 24 22 20 17 15 14 12 10 8 6 4 3 2 1 1 2 5 8 10 11 10 9 6 1 354 338 313 284 261 254 257 260 260 257 255 256 257 261 263 257 233 214 203 188 187 179 174 183 184 172 135 105 35 15 307 226 222 225 221 224 230 210 189 200 213 224 235 246 259 269 280 278 283 302 307
195 188 183 176 145 75 44 37 30 26 23 22 20 18 18 17 15 13 12 10 8 6 4 2 2 360 359 359 360 2 6 10 10 11 11 9 6 2 351 329 299 271 259 257 260 261 258 258 259 257 256 256 253 237 218 201 195 191 176 179 184 180 170 142 112 21 344 321 293 261 255 251 254 259 251 229 226 235 246 250 253 255 257 269 274 270 288 310
225 228 229 232 236 254 323 357 4 8 9 12 12 11 11 12 12 11 9 7 5 3 2 1 360 358 357 356 358 359 3 8 6 9 11 11 11 8 3 349 322 290 268 259 259 261 260 260 259 255 251 251 250 242 230 209 201 191 179 191 187 177 172 156 139 329 310 310 299 281 274 272 272 276 276 255 235 244 258 259 256 256 252 256 273 274 280 315
240 243 244 246 250 260 277 299 320 338 349 356 360 1 3 5 7 8 7 5 3 1 360 359 358 357 355 354 356 355 358 3 4 6 8 11 14 13 11 4 348 316 281 265 263 264 264 261 258 253 249 251 255 251 239 218 209 199 192 201 191 179 176 167 163 180 273 289 291 288 282 278 278 279 281 271 254 253 263 267 264 262 257 253 268 278 285 315
246 250 251 254 259 265 271 278 288 305 324 336 344 349 353 357 1 2 3 2 1 359 358 357 356 356 355 353 353 351 352 0 6 4 2 6 12 16 16 11 6 350 308 278 271 269 266 261 257 254 249 253 261 252 237 219 215 214 211 211 201 188 179 175 174 177 212 258 274 279 277 276 276 277 281 279 274 268 264 268 268 264 265 265 270 282 289 306
253 256 259 261 264 266 269 273 277 285 300 315 327 336 342 349 353 356 358 359 358 357 356 355 355 355 355 354 351 347 345 354 4 4 1 1 4 11 15 13 10 7 345 305 282 272 268 262 257 253 249 253 256 241 230 221 216 215 222 223 212 195 181 180 181 182 196 231 258 267 269 269 270 274 278 275 270 264 259 262 263 261 271 275 270 277 283 288
259 263 265 266 267 267 269 271 273 278 287 300 313 323 331 339 344 349 352 355 356 355 354 353 353 354 355 355 352 345 340 342 352 2 4 360 354 356 6 9 8 9 2 333 304 282 267 259 255 248 242 245 245 236 229 226 219 211 218 224 219 204 190 192 192 192 201 221 248 262 263 261 263 269 274 274 272 267 259 258 259 260 267 272 267 274 280 276
262 266 269 270 271 271 272 272 273 276 282 291 301 311 321 329 335 340 346 350 352 353 352 352 353 354 355 355 354 348 339 331 330 347 357 357 351 343 344 351 358 5 2 341 317 297 270 260 257 245 238 237 236 235 232 231 224 214 214 217 222 216 207 209 209 206 208 216 232 257 261 252 251 259 264 269 274 275 271 265 264 261 263 266 266 276 284 275
264 267 269 271 273 275 275 275 275 275 279 284 292 302 312 320 327 333 339 344 348 350 350 351 353 354 354 355 356 351 341 330 313 316 331 339 341 337 328 325 335 350 356 348 315 301 282 266 261 251 243 232 227 230 233 236 231 221 217 215 224 230 228 227 222 215 211 213 218 245 257 244 242 248 251 259 267 269 268 268 268 267 264 265 265 272 281 276
268 268 269 272 273 275 276 277 277 277 278 281 287 296 305 313 321 327 334 339 343 347 349 351 353 353 354 354 355 353 348 338 316 305 308 313 322 327 323 315 313 320 342 352 315 290 290 276 266 255 240 228 225 230 235 238 236 228 221 218 227 235 237 238 233 226 221 221 219 238 252 242 237 240 240 248 259 264 267 267 268 267 264 264 261 259 266 270
270 271 272 273 275 277 278 280 280 280 280 281 284 291 300 307 315 322 328 334 339 344 348 350 352 353 354 354 355 354 352 346 332 314 303 303 308 312 314 313 307 299 308 326 294 271 278 282 276 259 241 230 226 232 239 242 239 233 224 221 230 240 245 246 244 241 239 237 231 235 249 246 236 230 226 232 246 261 270 271 270 268 264 260 257 253 253 260
272 274 275 276 278 280 281 283 284 282 281 282 283 287 294 301 309 316 323 329 335 341 345 349 352 353 353 354 354 352 349 347 345 334 317 309 305 302 305 308 305 290 272 267 269 266 262 269 278 265 248 236 225 227 238 244 243 238 232 227 237 252 257 258 258 257 258 253 244 233 245 255 243 224 218 223 237 253 266 272 272 271 269 264 258 252 245 248
276 277 279 279 281 282 283 285 285 284 283 284 285 287 291 297 303 310 317 324 331 337 343 348 350 351 352 353 351 348 344 342 342 340 335 326 317 314 314 313 306 287 263 250 251 254 252 255 262 261 252 241 225 217 225 238 239 236 240 236 237 246 253 260 264 264 264 261 254 240 248 265 257 235 229 233 245 255 265 272 273 276 280 275 265 253 242 240
279 280 282 282 283 284 285 287 287 286 286 286 287 287 289 294 299 305 311 318 325 332 339 345 348 350 350 351 350 346 341 335 329 328 331 331 330 332 332 326 313 292 268 251 246 244 245 245 246 252 253 246 228 213 214 223 228 228 234 233 233 239 247 259 266 262 262 263 258 248 250 263 263 255 252 254 260 264 269 274 275 281 284 279 271 257 243 238
283 284 284 285 286 287 288 289 289 288 288 289 289 289 290 292 296 301 306 313 320 327 334 340 344 346 348 349 349 347 341 331 324 320 320 325 327 328 331 330 320 303 276 254 244 242 243 240 240 243 248 249 234 215 210 215 225 230 231 229 232 240 244 254 265 261 261 263 261 254 249 258 265 264 265 268 270 270 273 276 276 280 278 277 275 257 238 234
286 287 288 289 290 291 292 292 292 291 291 291 291 291 292 291 294 297 302 308 315 322 328 333 339 342 344 347 347 345 342 336 330 322 318 321 323 324 326 326 323 309 287 265 248 242 242 240 238 235 238 244 236 217 204 205 219 229 232 231 235 245 243 245 258 262 262 263 263 262 259 265 269 268 272 275 276 275 276 276 275 276 272 272 276 255 229 230
287 289 290 291 292 294 295 295 294 293 292 293 293 294 293 292 293 295 299 305 310 316 322 327 333 337 341 344 345 344 343 340 335 332 328 324 323 326 325 324 322 310 296 279 261 250 246 243 240 235 233 237 234 211 197 203 215 222 227 228 232 243 241 238 249 257 259 262 265 268 271 275 273 272 276 278 281 283 281 278 276 275 270 266 267 251 228 227
287 288 290 291 293 295 296 297 295 293 294 294 295 295 293 293 293 294 298 302 307 313 317 323 328 334 339 341 342 342 341 337 335 334 332 328 326 328 327 328 323 313 302 285 270 257 250 247 243 237 232 230 227 210 205 218 224 223 224 224 226 234 235 234 244 253 257 262 267 273 278 281 281 280 282 285 292 295 293 289 283 279 274 263 256 248 232 224
287 288 289 291 292 294 296 297 295 293 295 296 297 296 295 295 295 296 298 300 305 309 312 318 324 330 334 337 339 340 339 336 333 330 327 326 327 327 329 329 325 316 305 289 276 262 254 251 246 240 234 231 229 219 216 229 233 229 227 226 226 231 236 241 250 261 264 265 274 282 285 286 288 290 292 296 301 302 300 297 291 285 277 262 248 237 228 218
287 287 288 288 290 291 293 295 294 293 295 298 298 298 297 297 297 298 300 301 303 306 309 314 319 325 329 333 336 337 338 335 331 327 323 322 321 323 325 324 322 315 303 290 275 261 251 248 245 243 240 238 237 230 222 225 231 234 234 233 233 235 242 251 259 265 267 271 281 286 287 289 292 295 299 302 304 305 303 300 296 286 269 252 233 221 216 209
285 286 286 286 287 288 289 292 292 291 295 299 298 298 299 300 300 300 300 301 303 305 307 311 315 319 324 329 333 334 335 333 330 326 319 315 315 318 319 317 317 312 304 289 273 260 249 247 246 246 245 242 241 238 229 225 230 235 238 238 240 241 246 255 261 265 270 273 279 285 288 292 297 299 301 304 306 305 302 301 297 281 258 237 218 209 206 201
283 283 283 284 284 285 287 288 289 290 294 298 297 299 301 302 304 303 302 303 304 304 306 309 312 316 321 326 330 331 332 331 329 325 318 313 311 311 311 311 312 310 304 290 275 260 249 250 250 246 245 244 242 242 238 234 235 239 243 245 248 250 249 254 259 265 273 276 279 286 292 296 300 302 303 305 305 304 304 305 295 270 242 214 202 197 195 194
282 282 281 281 281 282 284 285 286 289 292 296 297 300 303 306 307 306 305 305 305 305 306 308 311 315 319 323 326 327 328 329 328 324 319 314 311 309 308 307 308 306 298 289 277 261 254 256 251 243 243 244 243 243 242 241 242 245 250 252 255 256 254 258 262 265 273 280 283 287 292 295 297 300 302 304 305 305 310 313 292 230 200 189 188 187 186 190
280 280 279 279 279 279 281 283 285 286 290 295 296 300 305 307 309 308 307 306 305 306 308 310 312 315 317 320 323 323 325 328 327 325 321 317 314 311 308 307 305 302 296 289 277 262 258 256 248 243 243 243 245 247 245 245 250 256 258 257 260 260 257 259 260 262 270 279 282 285 291 295 297 302 301 301 306 307 317 321 260 181 178 180 182 182 183 183
279 278 277 276 276 277 278 281 283 283 288 293 294 299 304 306 309 307 305 306 306 308 310 312 312 314 316 318 320 320 325 328 327 327 325 320 317 313 312 309 305 302 295 286 273 261 256 253 246 241 241 242 245 249 246 243 251 266 263 260 262 266 266 262 260 267 272 273 280 286 290 292 296 303 299 298 305 310 323 328 186 172 174 177 178 180 181 179
283 277 275 275 274 274 276 278 279 281 286 290 291 296 300 303 305 304 306 307 307 309 311 312 313 313 314 316 317 321 326 327 327 329 326 322 320 318 316 312 309 305 295 284 271 264 256 252 248 241 240 245 248 249 247 239 225 242 255 258 262 269 273 271 271 279 280 278 284 289 292 291 291 296 295 295 302 308 324 328 194 182 178 177 175 178 181 179
284 280 275 273 273 272 272 274 277 280 284 285 288 293 296 298 301 304 307 307 306 307 308 310 311 311 312 314 316 321 324 325 326 327 325 325 325 322 319 316 313 307 298 276 253 261 260 251 250 243 237 241 247 248 249 241 219 231 250 258 261 264 267 268 273 279 281 285 286 286 288 285 282 285 286 288 295 299 308 303 235 215 199 187 178 178 182 183
282 282 277 272 271 271 271 272 275 278 280 283 286 290 292 295 298 302 305 304 304 305 306 309 309 309 310 312 315 318 320 322 324 324 326 330 328 324 323 322 317 307 300 283 264 267 262 250 249 246 240 240 246 253 255 240 223 237 253 259 261 265 269 273 276 277 280 282 277 277 279 273 272 277 277 278 285 287 289 280 243 225 213 199 184 179 183 188
281 280 280 275 271 270 271 271 273 275 278 281 284 287 290 293 296 299 303 303 300 302 306 308 308 308 309 311 313 315 318 320 321 323 327 330 329 329 331 334 330 309 300 299 285 276 260 249 248 248 252 253 255 262 264 250 233 242 256 262 267 273 276 279 278 276 278 273 263 265 270 265 263 271 273 271 267 267 275 275 241 212 207 203 193 190 191 192
282 279 280 278 274 271 271 271 271 274 276 279 282 285 287 290 292 295 300 299 298 303 308 308 309 308 308 309 310 312 315 318 320 322 328 334 335 337 341 343 340 327 331 335 304 280 260 253 256 255 257 261 264 268 272 274 260 250 254 255 258 266 270 273 275 273 265 258 255 258 265 262 252 259 267 263 254 254 265 279 271 215 202 205 205 203 202 198
282 280 279 278 276 273 272 271 271 273 274 276 279 282 284 285 288 291 293 294 298 304 307 307 309 308 306 307 307 309 312 316 319 320 329 339 338 342 348 343 343 2 354 315 301 286 265 264 272 275 273 271 275 273 271 278 274 265 264 256 253 270 275 277 275 272 265 259 261 263 263 256 245 251 258 257 249 248 259 274 285 262 205 205 208 209 209 207
279 279 278 277 276 274 272 272 272 272 272 275 277 278 280 282 284 286 286 290 296 301 303 306 310 309 306 305 305 306 309 315 317 317 326 338 337 341 348 342 338 141 188 229 289 288 290 302 293 280 290 290 287 278 266 273 286 297 289 274 262 263 271 284 282 277 280 271 266 269 262 240 242 252 256 259 253 245 250 261 273 282 266 230 215 213 211 210
275 275 275 275 274 273 271 270 270 271 271 272 274 275 277 279 280 280 281 285 290 294 299 304 309 309 305 303 303 304 307 311 312 313 321 329 333 336 341 341 330 262 213 218 197 194 240 293 281 266 282 287 293 283 264 287 301 296 295 289 281 252 238 249 260 259 267 261 258 272 257 228 235 246 248 255 256 250 247 250 266 277 264 259 259 225 214 211
274 273 273 272 272 272 271 269 269 269 268 269 270 272 275 275 275 275 277 281 284 287 294 300 305 307 302 300 301 300 303 307 305 308 312 314 321 325 319 321 321 300 236 210 220 206 208 244 256 259 267 272 286 280 272 307 297 282 315 310 286 267 240 231 240 242 253 264 268 276 258 236 239 245 245 248 254 255 251 250 260 268 256 250 255 241 219 215
271 271 271 270 269 269 269 269 269 268 267 267 268 270 272 271 271 272 275 277 279 282 287 292 299 301 296 296 298 295 296 300 300 301 302 300 301 304 300 299 301 300 267 219 220 214 223 246 253 255 259 266 276 274 275 284 257 286 335 312 277 279 269 252 249 255 266 283 280 271 261 255 252 253 252 247 248 252 252 251 256 261 256 250 255 258 245 227
269 268 267 267 268 267 267 267 267 267 267 267 268 269 270 269 271 272 273 274 275 276 279 283 289 292 289 290 291 288 286 287 286 286 289 288 282 285 293 291 286 281 266 246 225 209 230 252 253 249 254 262 262 262 267 260 252 269 281 267 287 302 282 266 263 285 297 300 289 275 254 253 255 262 260 250 247 249 249 249 250 258 259 255 268 288 290 265
269 267 265 265 265 265 264 264 264 265 265 266 267 268 268 269 272 273 272 272 271 271 271 273 278 283 282 279 281 283 278 274 274 273 277 274 267 271 277 273 276 271 256 255 250 238 241 253 260 256 254 259 258 258 266 262 253 247 240 254 279 286 278 277 268 282 286 283 288 279 261 252 249 251 258 251 247 247 249 250 246 253 260 261 276 294 293 280
271 269 267 265 264 263 262 261 261 262 262 264 265 266 267 270 272 273 272 270 267 266 266 266 272 277 275 271 275 279 271 266 270 268 265 264 264 266 259 255 263 262 254 251 247 248 251 254 269 267 257 261 263 256 260 263 255 253 260 269 267 245 250 265 265 273 272 271 279 274 281 275 251 243 250 250 246 245 247 250 248 249 256 263 275 288 290 278
274 272 270 268 266 264 263 261 259 259 260 261 262 264 266 269 270 271 271 268 265 264 263 264 267 269 272 272 272 271 266 263 263 260 258 262 265 261 248 246 251 252 258 262 254 255 259 245 255 269 268 265 262 250 247 258 261 264 268 269 266 260 257 262 270 274 266 264 271 266 263 264 254 249 253 251 246 244 244 247 249 248 250 260 271 275 282 280
277 275 273 270 267 265 263 261 259 259 259 259 260 262 264 266 267 268 268 266 264 262 261 262 262 264 268 270 267 267 267 265 262 259 261 266 267 258 246 246 250 254 263 269 262 259 263 254 252 266 273 265 261 258 256 258 262 265 265 263 266 267 265 267 274 271 261 259 268 270 263 258 262 265 260 253 247 244 244 245 247 247 246 252 264 268 271 274
284 281 278 273 268 265 262 261 261 259 257 257 257 259 261 262 263 263 264 264 262 261 259 259 258 260 263 263 265 266 264 265 266 266 266 267 266 260 251 249 253 259 266 269 266 265 269 269 262 264 270 268 268 269 266 264 263 262 263 264 264 262 261 262 261 260 263 265 266 269 266 264 269 271 262 255 249 245 245 243 243 245 245 246 254 261 264 265
291 289 285 278 272 267 263 261 260 258 257 256 256 256 255 256 258 260 260 260 259 258 256 255 254 256 259 260 264 264 260 263 266 266 267 268 268 266 260 255 255 259 264 264 265 270 271 270 269 272 277 274 272 274 273 269 266 266 266 265 263 260 257 258 257 257 264 269 269 269 270 268 268 266 262 259 252 246 244 243 242 242 242 242 245 251 257 260
291 292 291 285 277 269 264 261 258 256 255 253 252 251 251 252 254 257 258 257 256 255 253 251 250 251 255 258 259 258 257 259 261 262 265 268 270 270 264 259 255 256 262 264 265 272 272 269 273 282 289 288 285 285 280 270 265 267 269 268 265 261 259 261 264 264 267 269 271 272 272 272 270 265 262 260 255 248 245 243 243 242 241 239 239 243 248 253
288 289 290 289 283 275 268 263 259 255 253 250 249 249 250 251 253 255 257 256 255 253 251 250 250 249 251 254 255 254 252 252 256 259 261 264 269 270 266 261 256 258 264 271 277 282 276 273 283 289 287 286 281 275 273 274 274 273 271 269 266 265 264 265 267 270 272 272 274 273 270 270 272 269 263 259 257 252 247 245 244 243 242 240 237 238 242 244
284 285 286 286 285 280 272 266 260 256 253 250 249 249 249 250 251 253 255 254 253 251 249 249 249 248 248 249 249 249 247 246 250 255 258 261 266 267 265 261 258 261 265 271 279 284 279 279 286 288 280 274 271 270 274 280 281 276 271 268 265 265 267 269 270 273 275 276 277 274 269 270 274 272 266 261 259 255 250 247 245 244 243 242 240 237 237 239
280 280 281 281 281 281 276 270 263 259 255 252 250 249 247 248 249 250 251 252 250 248 247 247 249 248 247 246 245 244 244 243 244 248 252 259 264 267 263 258 258 261 264 270 276 281 285 283 281 286 288 283 280 279 278 280 280 277 273 270 266 264 265 268 270 272 274 276 276 274 273 275 276 273 269 265 261 258 254 249 247 246 244 243 242 239 235 235
276 276 276 276 277 277 276 273 268 262 257 254 251 249 246 246 246 247 248 248 247 245 244 245 247 248 246 243 242 242 243 243 243 244 248 256 263 264 260 258 259 262 266 271 275 281 287 281 277 289 297 294 291 288 284 283 283 281 278 275 271 267 265 265 268 270 270 270 270 272 276 277 275 274 273 269 263 260 256 250 246 246 245 243 242 241 236 234
272 271 271 272 273 273 273 273 271 267 261 257 253 249 248 246 245 244 245 245 243 241 241 243 245 246 245 241 239 239 240 240 241 243 246 252 257 259 260 263 263 264 268 271 273 280 284 276 278 290 294 295 298 297 297 297 292 288 285 280 274 268 265 264 265 266 266 265 266 269 273 274 274 275 276 273 267 262 259 254 247 244 244 244 243 242 239 235
268 268 267 267 269 270 271 271 271 270 266 261 256 252 249 248 246 243 243 242 242 240 240 242 244 244 241 237 235 236 237 238 238 240 242 245 248 253 259 264 265 263 266 268 270 277 281 280 284 288 287 289 290 289 296 300 296 293 290 283 277 270 264 262 262 264 265 266 269 273 276 276 276 277 278 276 270 265 262 257 249 243 242 244 244 244 242 239
268 267 266 265 265 267 269 269 269 268 267 264 260 255 251 250 248 245 243 242 242 242 241 242 242 241 238 234 233 234 236 238 238 239 241 242 244 247 250 256 259 256 258 263 269 274 279 285 287 284 285 285 278 280 291 294 292 293 288 282 279 274 267 262 261 262 263 266 271 276 278 277 278 279 280 279 276 271 266 260 251 244 241 242 244 245 245 244
267 267 266 266 265 265 266 267 266 266 265 263 261 257 254 252 249 247 245 244 243 242 242 242 241 239 237 235 233 233 235 237 238 238 241 242 243 245 248 253 256 253 252 259 267 271 278 285 282 277 281 280 274 278 286 286 291 293 285 281 279 273 270 267 264 263 263 266 272 275 275 277 279 280 280 281 280 275 269 264 257 248 243 242 243 245 245 245
Height
5907 5907 5907 5907 5907 5907 5906 5906 5906 5905 5905 5905 5904 5904 5903 5903 5902 5901 5901 5900 5899 5898 5897 5896 5895 5894 5893 5891 5891 5890 5889 5888 5887 5886 5886 5885 5884 5884 5884 5883 5884 5884 5884 5884 5884 5884 5885 5886 5886 5886 5887 5887 5888 5888 5889 5889 5890 5891 5892 5893 5893 5893 5893 5892 5893 5893 5893 5893 5893 5893 5893 5893 5893 5893 5894 5894 5894 5894 5893 5893 5893 5892 5892 5892 5892 5892 5892 5891
5907 5906 5906 5906 5906 5906 5906 5906 5906 5905 5905 5905 5904 5904 5903 5903 5902 5901 5900 5899 5898 5897 5896 5895 5894 5893 5892 5891 5890 5889 5889 5888 5887 5886 5885 5885 5884 5883 5883 5883 5883 5883 5883 5883 5883 5883 5884 5885 5885 5886 5886 5887 5887 5888 5888 5889 5890 5891 5892 5892 5893 5893 5893 5893 5893 5893 5893 5894 5894 5894 5894 5893 5893 5893 5894 5894 5894 5894 5894 5893 5892 5892 5892 5892 5892 5892 5891 5891
5906 5906 5906 5906 5906 5906 5906 5905 5905 5905 5905 5904 5904 5903 5903 5902 5902 5901 5900 5899 5898 5897 5896 5895 5894 5893 5892 5891 5890 5889 5888 5888 5887 5886 5885 5885 5884 5883 5882 5882 5882 5882 5882 5882 5882 5883 5883 5884 5885 5885 5885 5886 5887 5887 5888 5888 5889 5890 5891 5892 5892 5892 5893 5893 5893 5893 5893 5894 5894 5894 5894 5893 5893 5894 5894 5895 5894 5894 5894 5893 5892 5892 5892 5892 5892 5891 5891 5890
5905 5906 5905 5905 5905 5905 5905 5905 5905 5905 5904 5904 5904 5903 5903 5902 5901 5900 5900 5899 5898 5897 5896 5895 5893 5892 5891 5890 5889 5888 5888 5887 5887 5886 5885 5885 5884 5883 5882 5882 5881 5881 5881 5881 5881 5882 5883 5884 5884 5884 5885 5885 5886 5887 5887 5888 5889 5890 5890 5891 5891 5892 5892 5893 5893 5893 5893 5894 5894 5894 5893 5893 5892 5893 5894 5895 5894 5894 5893 5893 5892 5892 5892 5892 5891 5891 5890 5890
5905 5905 5905 5905 5905 5904 5904 5904 5904 5904 5904 5903 5903 5903 5902 5901 5901 5900 5899 5898 5897 5896 5895 5894 5893 5892 5891 5890 5889 5888 5887 5887 5887 5886 5885 5884 5884 5883 5882 5882 5881 5881 5881 5881 5881 5881 5882 5883 5883 5884 5884 5884 5885 5886 5886 5887 5888 5888 5889 5890 5890 5891 5892 5892 5893 5894 5894 5894 5894 5894 5893 5892 5892 5893 5894 5894 5894 5893 5893 5893 5892 5892 5891 5891 5891 5891 5890 5889
5904 5904 5904 5904 5904 5904 5904 5904 5903 5903 5903 5903 5902 5902 5901 5901 5900 5899 5899 5898 5897 5896 5895 5894 5892 5891 5890 5889 5888 5888 5887 5887 5886 5886 5885 5884 5884 5883 5882 5882 5881 5881 5881 5881 5881 5881 5881 5882 5883 5883 5883 5883 5885 5885 5886 5886 5887 5887 5888 5889 5889 5890 5891 5892 5892 5893 5894 5894 5894 5894 5893 5892 5892 5892 5893 5893 5893 5893 5892 5892 5892 5892 5891 5891 5890 5890 5890 5889
5903 5903 5903 5903 5903 5903 5903 5903 5903 5902 5902 5902 5902 5901 5901 5900 5899 5899 5898 5897 5896 5895 5894 5893 5892 5891 5890 5889 5888 5887 5886 5886 5886 5885 5885 5884 5884 5883 5882 5882 5881 5881 5880 5880 5881 5881 5881 5881 5882 5882 5882 5883 5884 5884 5885 5885 5886 5887 5887 5888 5889 5890 5891 5891 5892 5892 5893 5893 5894 5894 5893 5893 5892 5892 5892 5892 5892 5892 5892 5892 5892 5891 5891 5890 5890 5889 5889 5889
5902 5902 5902 5902 5902 5902 5902 5902 5902 5902 5901 5901 5901 5900 5900 5899 5899 5898 5897 5897 5896 5895 5894 5893 5891 5890 5889 5888 5887 5886 5886 5885 5885 5885 5884 5884 5883 5883 5882 5882 5881 5880 5880 5880 5880 5880 5880 5881 5881 5881 5881 5882 5883 5884 5884 5885 5885 5886 5887 5888 5888 5889 5890 5890 5891 5892 5892 5892 5893 5894 5893 5893 5892 5892 5892 5892 5892 5892 5892 5891 5891 5890 5890 5890 5889 5889 5889 5888
5901 5901 5901 5901 5901 5901 5901 5901 5901 5901 5900 5900 5900 5899 5899 5899 5898 5897 5897 5896 5895 5894 5893 5892 5891 5890 5889 5888 5887 5886 5885 5885 5884 5884 5884 5883 5883 5882 5882 5881 5881 5880 5880 5880 5880 5880 5880 5880 5880 5880 5881 5882 5883 5883 5883 5884 5885 5885 5886 5887 5887 5888 5888 5889 5890 5890 5891 5891 5892 5892 5893 5893 5892 5891 5891 5891 5891 5891 5891 5891 5890 5890 5889 5889 5888 5888 5888 5887
5900 5900 5900 5900 5900 5900 5900 5900 5900 5900 5899 5899 5899 5899 5898 5898 5897 5897 5896 5895 5895 5894 5893 5891 5890 5889 5888 5887 5886 5885 5884 5884 5884 5883 5883 5883 5882 5882 5882 5881 5881 5880 5880 5880 5880 5880 5880 5880 5880 5880 5881 5882 5882 5882 5883 5883 5884 5885 5885 5886 5887 5887 5887 5887 5888 5889 5889 5890 5890 5891 5892 5892 5891 5891 5891 5890 5890 5891 5890 5890 5890 5889 5889 5888 5888 5888 5888 5887
5900 5899 5899 5899 5899 5899 5899 5899 5899 5899 5899 5898 5898 5898 5898 5897 5896 5896 5895 5895 5894 5893 5892 5891 5890 5888 5887 5886 5885 5884 5884 5883 5883 5883 5882 5882 5882 5881 5881 5880 5880 5880 5880 5880 5879 5879 5879 5879 5879 5880 5880 5881 5881 5881 5882 5882 5883 5884 5885 5885 5886 5886 5886 5886 5887 5888 5888 5889 5890 5890 5890 5891 5890 5890 5890 5890 5890 5890 5890 5889 5889 5889 5888 5888 5887 5887 5887 5887
5899 5899 5898 5898 5898 5898 5898 5898 5898 5898 5898 5897 5897 5897 5896 5896 5896 5895 5894 5894 5893 5892 5891 5890 5889 5888 5887 5886 5885 5884 5883 5882 5882 5882 5881 5881 5881 5880 5880 5880 5879 5879 5879 5879 5879 5879 5879 5879 5879 5879 5879 5880 5880 5881 5881 5882 5883 5883 5884 5885 5885 5885 5885 5885 5886 5887 5887 5888 5889 5889 5889 5889 5889 5890 5890 5889 5889 5889 5888 5888 5888 5888 5887 5887 5886 5886 5886 5886
5898 5898 5898 5897 5897 5897 5897 5897 5897 5897 5896 5896 5896 5896 5895 5895 5895 5894 5893 5893 5892 5891 5890 5889 5888 5887 5886 5885 5884 5883 5883 5882 5881 5881 5880 5880 5880 5880 5879 5879 5879 5879 5879 5879 5878 5878 5878 5878 5878 5878 5879 5879 5880 5880 5881 5881 5882 5883 5883 5884 5885 5885 5885 5885 5886 5886 5887 5887 5887 5888 5888 5887 5888 5888 5889 5889 5889 5888 5887 5887 5887 5886 5886 5886 5885 5885 5885 5885
5897 5897 5897 5897 5896 5896 5896 5896 5896 5895 5895 5895 5895 5895 5894 5894 5894 5893 5893 5892 5891 5890 5889 5888 5888 5887 5886 5885 5884 5883 5882 5882 5881 5880 5880 5879 5879 5879 5878 5878 5877 5878 5878 5878 5878 5878 5878 5878 5878 5878 5878 5878 5879 5880 5880 5881 5881 5882 5883 5884 5885 5885 5885 5885 5885 5886 5886 5886 5886 5887 5887 5886 5886 5887 5887 5887 5888 5887 5887 5886 5885 5885 5886 5886 5885 5885 5884 5884
5896 5896 5896 5896 5895 5895 5895 5895 5895 5894 5894 5894 5894 5893 5893 5893 5893 5892 5892 5891 5890 5890 5889 5888 5887 5886 5885 5884 5883 5882 5882 5881 5881 5880 5879 5879 5878 5878 5877 5877 5876 5876 5877 5877 5877 5877 5877 5877 5877 5877 5877 5878 5879 5880 5880 5881 5881 5882 5883 5884 5884 5885 5885 5884 5885 5885 5885 5885 5885 5886 5886 5886 5885 5886 5886 5886 5886 5886 5886 5885 5884 5884 5884 5884 5884 5884 5884 5884
5895 5895 5895 5894 5894 5894 5894 5894 5893 5893 5893 5892 5892 5892 5892 5892 5891 5891 5890 5890 5889 5889 5888 5887 5886 5885 5884 5884 5883 5882 5881 5880 5880 5879 5879 5878 5878 5877 5877 5876 5876 5875 5875 5876 5876 5876 5876 5876 5876 5877 5877 5877 5878 5879 5880 5881 5881 5882 5882 5883 5883 5884 5884 5884 5884 5884 5884 5884 5884 5885 5886 5886 5885 5885 5885 5885 5885 5884 5885 5884 5883 5883 5883 5882 5882 5882 5883 5883
5894 5894 5894 5893 5893 5893 5893 5892 5892 5892 5891 5891 5891 5891 5891 5890 5890 5890 5889 5889 5888 5888 5887 5886 5885 5884 5884 5883 5882 5881 5880 5880 5879 5879 5878 5877 5877 5876 5876 5875 5875 5874 5874 5874 5874 5874 5874 5875 5875 5876 5876 5876 5877 5879 5880 5880 5881 5881 5882 5882 5883 5883 5883 5883 5883 5883 5883 5883 5883 5884 5885 5885 5884 5884 5883 5883 5883 5883 5883 5882 5881 5882 5881 5880 5881 5880 5881 5882
5893 5893 5892 5892 5892 5891 5891 5891 5891 5890 5890 5890 5890 5890 5889 5889 5889 5888 5888 5888 5887 5886 5886 5885 5884 5884 5883 5882 5881 5880 5880 5879 5878 5878 5877 5877 5876 5875 5875 5874 5874 5873 5873 5873 5873 5873 5873 5874 5874 5874 5875 5875 5876 5877 5878 5879 5879 5880 5880 5881 5882 5882 5882 5883 5883 5882 5882 5882 5882 5883 5884 5884 5883 5883 5882 5882 5881 5881 5881 5880 5879 5879 5879 5879 5879 5879 5879 5880
5892 5892 5891 5891 5890 5890 5890 5890 5889 5889 5889 5888 5888 5888 5888 5888 5887 5887 5887 5886 5886 5885 5885 5884 5883 5883 5882 5881 5880 5879 5879 5878 5877 5877 5876 5876 5875 5874 5874 5873 5873 5872 5872 5872 5872 5872 5872 5872 5873 5873 5874 5874 5874 5876 5876 5876 5876 5878 5879 5880 5880 5880 5881 5881 5881 5881 5881 5881 5882 5882 5882 5882 5882 5881 5881 5880 5879 5879 5878 5877 5877 5876 5876 5876 5876 5877 5877 5878
5891 5890 5890 5890 5889 5889 5889 5888 5888 5887 5887 5887 5887 5887 5887 5886 5886 5886 5885 5885 5884 5884 5883 5883 5882 5881 5881 5880 5879 5878 5878 5877 5876 5875 5875 5874 5874 5873 5873 5872 5871 5871 5870 5870 5870 5871 5871 5871 5872 5872 5872 5872 5873 5874 5875 5875 5876 5877 5877 5878 5879 5879 5880 5880 5880 5879 5880 5880 5881 5881 5881 5881 5880 5880 5879 5878 5878 5877 5875 5874 5874 5873 5872 5872 5873 5874 5875 5877
5889 5889 5889 5888 5888 5887 5887 5887 5886 5886 5886 5886 5886 5885 5885 5885 5884 5884 5884 5883 5883 5883 5882 5881 5881 5880 5880 5879 5878 5877 5876 5876 5875 5874 5873 5873 5872 5872 5871 5871 5870 5870 5869 5869 5869 5869 5869 5870 5870 5870 5871 5872 5872 5873 5874 5874 5875 5875 5876 5877 5878 5878 5878 5878 5878 5878 5879 5879 5880 5880 5880 5879 5879 5878 5877 5877 5876 5875 5873 5872 5871 5870 5869 5868 5870 5871 5873 5876
5887 5887 5887 5887 5886 5886 5886 5886 5885 5884 5884 5884 5884 5884 5884 5883 5883 5883 5882 5882 5882 5881 5881 5880 5880 5879 5878 5878 5877 5876 5875 5874 5874 5873 5872 5872 5871 5871 5870 5870 5869 5868 5868 5868 5867 5868 5868 5868 5868 5869 5870 5871 5871 5872 5873 5873 5873 5874 5875 5876 5877 5877 5878 5877 5877 5877 5878 5878 5879 5879 5879 5878 5877 5876 5876 5875 5874 5873 5871 5869 5867 5866 5866 5867 5868 5869 5872 5874
5885 5885 5885 5885 5885 5884 5884 5884 5883 5883 5883 5883 5883 5882 5882 5882 5882 5881 5881 5880 5880 5880 5879 5879 5878 5878 5877 5876 5876 5875 5874 5873 5872 5872 5871 5871 5870 5870 5869 5869 5868 5867 5867 5866 5866 5866 5866 5866 5866 5868 5868 5869 5870 5870 5871 5872 5872 5873 5874 5875 5876 5877 5877 5876 5876 5876 5877 5877 5877 5878 5878 5877 5876 5875 5874 5873 5872 5870 5869 5866 5863 5862 5864 5865 5866 5868 5872 5873
5883 5883 5883 5883 5883 5883 5883 5883 5882 5882 5882 5882 5881 5881 5881 5881 5880 5880 5879 5879 5879 5878 5878 5877 5877 5876 5876 5875 5874 5874 5873 5872 5871 5870 5870 5869 5869 5868 5868 5867 5867 5866 5866 5865 5865 5865 5864 5864 5865 5866 5866 5867 5868 5869 5870 5871 5871 5872 5873 5874 5875 5876 5876 5875 5875 5876 5876 5876 5876 5877 5877 5875 5874 5874 5872 5872 5870 5867 5866 5863 5859 5859 5860 5862 5864 5868 5871 5872
5881 5881 5881 5881 5881 5881 5881 5881 5881 5880 5880 5880 5880 5880 5879 5879 5879 5878 5878 5877 5877 5877 5876 5876 5875 5875 5874 5874 5873 5872 5872 5871 5870 5869 5868 5868 5867 5867 5866 5866 5865 5865 5864 5864 5864 5863 5863 5863 5863 5864 5864 5865 5866 5867 5868 5869 5870 5871 5871 5872 5873 5874 5874 5875 5875 5875 5875 5875 5874 5875 5876 5874 5873 5872 5871 5870 5868 5867 5865 5861 5858 5858 5858 5860 5864 5868 5870 5872
5879 5879 5879 5879 5879 5879 5879 5879 5879 5878 5879 5879 5878 5878 5878 5878 5878 5877 5876 5876 5875 5875 5875 5874 5874 5873 5873 5872 5872 5871 5870 5869 5869 5868 5867 5866 5866 5865 5865 5864 5863 5863 5863 5862 5862 5862 5861 5861 5862 5862 5863 5864 5865 5865 5866 5868 5870 5871 5869 5870 5870 5871 5872 5873 5873 5874 5874 5874 5874 5874 5875 5873 5872 5871 5870 5869 5868 5867 5865 5862 5860 5859 5859 5861 5865 5867 5869 5872
5877 5877 5877 5877 5877 5877 5877 5877 5877 5877 5877 5877 5877 5877 5877 5876 5876 5876 5875 5874 5874 5874 5873 5873 5873 5872 5871 5871 5870 5869 5869 5868 5867 5866 5866 5865 5864 5864 5863 5862 5862 5861 5861 5861 5861 5860 5860 5861 5861 5861 5862 5863 5864 5864 5865 5866 5869 5870 5868 5868 5869 5869 5870 5871 5872 5873 5873 5873 5873 5873 5873 5873 5871 5870 5869 5869 5868 5867 5866 5864 5863 5862 5862 5863 5865 5867 5869 5871
5874 5874 5875 5874 5874 5875 5875 5875 5875 5875 5875 5875 5875 5875 5875 5875 5874 5874 5874 5873 5872 5872 5872 5872 5871 5871 5870 5869 5869 5868 5867 5867 5866 5865 5864 5864 5863 5862 5862 5861 5860 5860 5860 5860 5861 5860 5860 5860 5860 5861 5862 5863 5863 5863 5864 5865 5867 5868 5867 5868 5869 5869 5870 5870 5871 5872 5872 5873 5872 5871 5872 5872 5870 5869 5869 5868 5868 5868 5866 5866 5865 5864 5864 5864 5865 5868 5870 5871
5872 5872 5872 5872 5872 5872 5873 5873 5873 5873 5873 5873 5873 5874 5873 5873 5873 5873 5872 5872 5871 5871 5871 5870 5870 5869 5868 5868 5867 5867 5866 5865 5865 5864 5863 5863 5862 5861 5861 5860 5859 5859 5859 5859 5859 5859 5859 5859 5859 5860 5861 5862 5862 5862 5863 5864 5866 5866 5866 5867 5868 5868 5869 5870 5871 5871 5871 5872 5871 5870 5870 5871 5870 5869 5868 5868 5868 5868 5867 5866 5866 5865 5866 5866 5867 5869 5870 5871
5870 5869 5870 5870 5870 5870 5870 5871 5871 5871 5871 5871 5871 5872 5871 5871 5871 5871 5871 5870 5870 5869 5869 5869 5868 5867 5867 5866 5866 5865 5865 5864 5863 5863 5862 5862 5861 5860 5859 5858 5858 5858 5857 5857 5858 5858 5858 5858 5859 5859 5860 5860 5861 5862 5862 5863 5864 5865 5865 5867 5867 5868 5868 5869 5869 5870 5870 5870 5869 5869 5869 5869 5869 5868 5868 5868 5868 5868 5867 5866 5866 5866 5866 5867 5868 5869 5870 5871
5868 5868 5867 5867 5868 5868 5868 5868 5868 5868 5869 5869 5869 5869 5869 5869 5869 5869 5869 5868 5868 5868 5868 5867 5867 5866 5865 5865 5864 5864 5863 5863 5862 5861 5861 5860 5860 5859 5858 5857 5857 5857 5857 5857 5857 5857 5857 5858 5858 5859 5859 5860 5860 5861 5862 5862 5863 5864 5865 5865 5866 5866 5867 5867 5868 5868 5869 5868 5867 5867 5868 5868 5868 5867 5867 5867 5867 5867 5866 5866 5866 5866 5866 5867 5868 5869 5870 5870
5865 5865 5865 5864 5865 5865 5865 5865 5866 5866 5866 5866 5867 5867 5867 5867 5867 5867 5867 5867 5866 5866 5866 5865 5865 5864 5863 5863 5863 5862 5862 5861 5861 5860 5859 5859 5858 5858 5857 5857 5856 5857 5859 5860 5859 5857 5857 5857 5858 5858 5859 5859 5860 5861 5861 5861 5862 5863 5863 5864 5865 5866 5866 5866 5867 5867 5867 5867 5866 5866 5867 5867 5867 5866 5866 5866 5866 5866 5866 5865 5865 5865 5865 5866 5867 5868 5869 5870
5862 5862 5862 5862 5862 5862 5862 5862 5862 5863 5863 5863 5864 5864 5864 5865 5865 5865 5865 5865 5865 5864 5864 5863 5863 5862 5862 5861 5861 5861 5860 5860 5860 5859 5858 5858 5858 5857 5857 5856 5856 5858 5860 5860 5859 5860 5859 5858 5857 5858 5858 5859 5860 5860 5860 5860 5861 5862 5862 5863 5864 5866 5866 5867 5868 5867 5866 5865 5865 5865 5866 5866 5866 5865 5865 5865 5865 5865 5865 5864 5864 5864 5865 5865 5865 5867 5867 5868
5858 5859 5859 5859 5859 5859 5859 5859 5859 5860 5860 5860 5861 5861 5862 5862 5862 5862 5863 5863 5863 5862 5862 5861 5861 5860 5860 5859 5859 5859 5859 5859 5859 5858 5858 5858 5857 5857 5857 5856 5856 5856 5857 5858 5859 5861 5861 5859 5857 5857 5858 5858 5859 5860 5860 5860 5861 5861 5861 5862 5863 5864 5865 5866 5867 5866 5865 5864 5863 5864 5865 5865 5864 5864 5864 5863 5864 5864 5864 5864 5864 5864 5864 5864 5865 5865 5865 5866
5854 5855 5855 5855 5855 5856 5856 5856 5856 5857 5857 5857 5857 5858 5859 5859 5859 5859 5860 5861 5861 5860 5860 5859 5859 5859 5858 5857 5858 5857 5858 5858 5857 5857 5857 5857 5857 5857 5857 5856 5856 5855 5856 5857 5858 5858 5860 5858 5856 5857 5857 5857 5858 5858 5859 5860 5861 5860 5860 5860 5862 5862 5862 5863 5863 5863 5863 5863 5863 5864 5864 5863 5863 5863 5862 5862 5862 5863 5863 5862 5862 5862 5862 5863 5864 5864 5864 5864
5849 5851 5851 5851 5851 5852 5852 5852 5852 5853 5854 5854 5854 5855 5856 5856 5855 5856 5857 5858 5858 5858 5858 5858 5857 5857 5856 5856 5856 5856 5857 5857 5856 5856 5856 5856 5856 5856 5856 5856 5855 5855 5855 5856 5857 5857 5858 5857 5855 5856 5856 5856 5857 5857 5857 5859 5860 5859 5860 5861 5860 5860 5860 5861 5862 5861 5862 5863 5863 5862 5863 5862 5862 5862 5861 5861 5861 5861 5861 5861 5861 5860 5859 5861 5863 5863 5862 5862
5844 5846 5846 5846 5847 5848 5848 5848 5849 5849 5850 5850 5850 5852 5852 5852 5852 5853 5854 5855 5856 5856 5856 5856 5856 5856 5855 5854 5854 5855 5856 5856 5855 5855 5855 5855 5855 5855 5855 5855 5854 5854 5854 5855 5855 5856 5856 5855 5854 5855 5855 5855 5855 5856 5856 5857 5857 5859 5860 5860 5858 5858 5859 5859 5860 5861 5862 5863 5863 5862 5862 5862 5861 5861 5860 5860 5860 5860 5860 5860 5859 5858 5857 5858 5860 5861 5861 5861
5839 5840 5841 5841 5842 5843 5844 5844 5844 5845 5845 5846 5847 5848 5848 5848 5848 5850 5851 5852 5852 5853 5854 5854 5853 5854 5854 5853 5853 5853 5854 5854 5854 5854 5854 5854 5854 5854 5854 5854 5854 5854 5854 5854 5854 5854 5855 5854 5853 5854 5854 5854 5854 5855 5855 5855 5855 5856 5857 5857 5857 5858 5859 5858 5859 5861 5861 5863 5863 5861 5861 5861 5860 5859 5859 5859 5859 5858 5858 5858 5858 5857 5856 5856 5857 5859 5860 5861
5834 5835 5836 5836 5837 5837 5838 5839 5840 5840 5841 5842 5843 5844 5844 5844 5845 5846 5847 5848 5849 5850 5851 5851 5851 5852 5852 5852 5851 5851 5852 5852 5852 5853 5853 5852 5853 5853 5853 5853 5853 5853 5853 5853 5853 5853 5854 5854 5854 5852 5853 5853 5853 5854 5855 5854 5854 5854 5855 5855 5855 5856 5857 5857 5857 5858 5859 5860 5861 5860 5860 5860 5858 5857 5857 5857 5857 5857 5856 5856 5856 5856 5855 5855 5856 5857 5859 5859
5830 5831 5831 5832 5832 5833 5833 5834 5834 5835 5836 5838 5839 5839 5840 5840 5841 5842 5843 5845 5846 5847 5847 5848 5848 5849 5849 5849 5849 5849 5849 5850 5851 5851 5851 5851 5851 5852 5852 5852 5852 5852 5852 5852 5853 5852 5852 5853 5853 5851 5851 5852 5852 5852 5853 5852 5852 5853 5854 5854 5854 5854 5855 5855 5856 5856 5856 5857 5857 5857 5859 5858 5856 5855 5856 5855 5855 5855 5855 5855 5855 5854 5854 5854 5855 5857 5859 5859
5827 5827 5827 5828 5828 5829 5829 5829 5829 5830 5832 5833 5834 5835 5836 5837 5837 5838 5839 5840 5842 5843 5843 5844 5845 5846 5846 5846 5846 5846 5847 5848 5849 5849 5849 5849 5850 5850 5850 5850 5850 5850 5851 5851 5851 5851 5851 5851 5851 5850 5850 5850 5849 5849 5850 5851 5851 5851 5852 5852 5852 5852 5853 5854 5855 5854 5854 5854 5855 5855 5856 5856 5854 5854 5854 5854 5854 5854 5853 5853 5853 5853 5853 5854 5854 5855 5857 5859
5824 5824 5824 5824 5824 5825 5825 5825 5826 5827 5827 5828 5829 5831 5832 5833 5833 5834 5835 5836 5837 5839 5840 5841 5842 5843 5843 5843 5843 5844 5845 5845 5846 5847 5847 5847 5848 5847 5847 5848 5848 5849 5849 5849 5849 5849 5849 5849 5849 5848 5848 5847 5847 5847 5848 5848 5849 5849 5850 5850 5850 5851 5851 5852 5853 5852 5852 5852 5852 5853 5853 5852 5852 5852 5852 5852 5852 5852 5852 5852 5851 5852 5852 5852 5853 5854 5855 5857
5822 5821 5821 5821 5821 5821 5821 5821 5822 5823 5823 5824 5826 5827 5828 5829 5829 5830 5831 5832 5833 5834 5836 5837 5838 5839 5840 5840 5841 5841 5842 5843 5843 5844 5845 5845 5845 5845 5845 5846 5847 5847 5847 5847 5847 5848 5847 5847 5847 5846 5846 5845 5845 5845 5845 5845 5846 5847 5847 5848 5848 5848 5849 5849 5849 5849 5850 5850 5850 5850 5851 5850 5850 5850 5850 5849 5849 5849 5850 5850 5850 5850 5851 5851 5852 5853 5854 5855
5819 5819 5819 5818 5818 5818 5818 5818 5819 5819 5820 5821 5822 5822 5823 5824 5825 5826 5827 5828 5829 5830 5832 5833 5835 5836 5836 5837 5838 5838 5839 5840 5840 5841 5842 5842 5842 5842 5843 5844 5845 5845 5845 5845 5845 5846 5846 5845 5845 5845 5846 5846 5845 5844 5843 5843 5843 5844 5845 5845 5845 5846 5846 5847 5847 5847 5847 5848 5847 5848 5848 5847 5847 5848 5848 5847 5847 5847 5847 5848 5848 5849 5849 5850 5851 5851 5852 5853
5817 5817 5816 5816 5815 5815 5815 5815 5816 5816 5816 5817 5818 5819 5820 5821 5821 5822 5823 5824 5825 5826 5828 5829 5831 5833 5834 5834 5835 5836 5837 5838 5838 5838 5839 5839 5839 5840 5841 5841 5842 5843 5843 5843 5843 5844 5844 5843 5843 5844 5845 5846 5845 5844 5843 5841 5841 5842 5842 5842 5843 5843 5844 5844 5844 5844 5845 5845 5845 5845 5845 5844 5844 5845 5845 5845 5844 5844 5845 5846 5846 5847 5847 5848 5849 5850 5851 5852
5814 5814 5814 5813 5813 5813 5813 5813 5813 5813 5813 5814 5814 5815 5816 5817 5817 5818 5819 5819 5821 5823 5824 5825 5827 5829 5831 5831 5832 5833 5834 5835 5836 5836 5837 5837 5837 5838 5839 5839 5840 5840 5840 5841 5841 5842 5842 5841 5841 5842 5842 5842 5842 5841 5841 5840 5840 5840 5840 5840 5840 5841 5841 5842 5842 5842 5842 5842 5842 5842 5842 5841 5841 5842 5842 5842 5842 5842 5842 5843 5844 5844 5845 5846 5847 5847 5849 5850
5811 5811 5810 5810 5810 5810 5810 5810 5810 5810 5810 5811 5811 5812 5813 5813 5814 5814 5815 5815 5817 5819 5821 5822 5823 5825 5827 5828 5829 5830 5831 5832 5833 5834 5835 5835 5835 5836 5836 5837 5837 5838 5838 5839 5839 5839 5839 5839 5839 5839 5839 5839 5838 5838 5838 5838 5838 5838 5837 5837 5838 5838 5839 5839 5839 5839 5839 5840 5839 5838 5839 5839 5839 5839 5839 5839 5839 5839 5839 5841 5841 5842 5843 5844 5844 5845 5846 5847
5808 5808 5807 5807 5807 5807 5807 5807 5807 5807 5807 5808 5808 5809 5809 5809 5810 5811 5811 5812 5814 5815 5817 5818 5819 5821 5823 5825 5826 5827 5828 5829 5830 5831 5832 5833 5833 5834 5834 5835 5835 5836 5836 5837 5837 5837 5837 5837 5837 5836 5836 5836 5836 5835 5835 5836 5836 5836 5835 5835 5835 5835 5836 5836 5836 5836 5837 5837 5837 5836 5836 5837 5836 5835 5835 5836 5836 5836 5836 5837 5838 5839 5840 5841 5842 5842 5844 5845
5804 5804 5804 5804 5804 5804 5804 5804 5804 5804 5805 5805 5805 5806 5806 5806 5807 5807 5808 5809 5810 5812 5813 5814 5815 5817 5820 5822 5823 5824 5825 5826 5827 5828 5829 5830 5831 5832 5832 5833 5833 5833 5834 5835 5835 5835 5835 5835 5834 5834 5834 5833 5833 5833 5832 5832 5833 5833 5833 5833 5833 5833 5833 5833 5833 5834 5834 5834 5834 5834 5834 5834 5832 5832 5832 5833 5833 5833 5834 5834 5835 5836 5837 5838 5839 5840 5841 5842
5800 5800 5801 5801 5801 5801 5801 5801 5801 5801 5801 5802 5802 5802 5803 5803 5803 5804 5805 5805 5806 5808 5809 5810 5812 5814 5817 5818 5819 5820 5821 5823 5824 5825 5826 5828 5829 5829 5830 5830 5831 5831 5832 5832 5832 5833 5833 5833 5832 5832 5832 5831 5830 5830 5830 5830 5830 5831 5831 5831 5831 5831 5831 5831 5831 5831 5832 5832 5832 5832 5832 5831 5830 5829 5829 5830 5830 5831 5831 5831 5832 5832 5833 5834 5835 5836 5838 5839
5796 5796 5797 5797 5797 5797 5797 5798 5798 5797 5798 5798 5799 5799 5799 5800 5800 5801 5801 5802 5803 5804 5805 5807 5809 5811 5813 5814 5815 5816 5818 5819 5821 5822 5824 5825 5826 5827 5828 5828 5829 5829 5830 5830 5830 5831 5830 5830 5830 5830 5830 5830 5829 5828 5828 5828 5828 5828 5828 5827 5828 5828 5828 5828 5828 5828 5829 5829 5830 5830 5829 5827 5827 5827 5827 5827 5827 5828 5828 5828 5829 5829 5830 5831 5832 5833 5834 5836
5792 5792 5793 5793 5793 5793 5793 5794 5794 5794 5794 5795 5795 5796 5796 5796 5797 5798 5798 5798 5799 5800 5802 5804 5805 5807 5809 5810 5811 5813 5815 5816 5818 5820 5821 5822 5823 5824 5825 5826 5826 5827 5827 5828 5829 5829 5828 5828 5828 5828 5828 5828 5827 5826 5826 5826 5826 5826 5825 5824 5824 5825 5825 5825 5825 5826 5826 5827 5827 5827 5826 5825 5824 5824 5824 5824 5824 5824 5825 5825 5826 5826 5827 5828 5828 5829 5831 5832